When you browse on this site, cookies collect data to enhance your experience and personalize the content and advertising you see.
Visit our Privacy Policy to learn more. By continuing to use the site, you agree to this use of cookies and data.
  • In Latvia
  • List of Countries
  • For 7 days
  • Water Temperature
  • Weather Map
  • Weather Widgets
  • user-avatar
    Login

    Hourly Weather Bismarck

    Today, 14 October, Monday

    Time Temperature Precipitation Wind Pressure Humidity
    00:00 -1°C° 0 mm 1 mps 714 mmHg 89%
    01:00 -2°C° 0 mm 1 mps 714 mmHg 88%
    02:00 -2°C° 0 mm 1 mps 714 mmHg 87%
    03:00 -4°C° 0 mm 2 mps 714 mmHg 87%
    04:00 -4°C° 0 mm 2 mps 713 mmHg 87%
    05:00 -4°C° 0 mm 2 mps 713 mmHg 87%
    06:00 -3°C° 0 mm 2 mps 713 mmHg 87%
    07:00 -3°C° 0 mm 2 mps 713 mmHg 87%
    08:00 -2°C° 0 mm 2 mps 713 mmHg 87%
    09:00 -1°C° 0 mm 3 mps 713 mmHg 89%
    10:00 0°C° 0 mm 3 mps 713 mmHg 92%
    11:00 +1°C° 0 mm 3 mps 712 mmHg 94%
    12:00 +1°C° 0 mm 3 mps 712 mmHg 93%
    13:00 +2°C° 0 mm 3 mps 712 mmHg 92%
    14:00 +3°C° 0 mm 2 mps 711 mmHg 91%
    15:00 +3°C° 0 mm 2 mps 712 mmHg 93%
    16:00 +2°C° 0 mm 2 mps 712 mmHg 94%
    17:00 +2°C° 0 mm 2 mps 712 mmHg 95%
    18:00 +2°C° 0.1 mm 2 mps 712 mmHg 95%
    19:00 +2°C° 0.1 mm 2 mps 712 mmHg 95%
    20:00 +2°C° 0.1 mm 2 mps 712 mmHg 95%
    21:00 +1°C° 0 mm 3 mps 712 mmHg 94%
    22:00 +1°C° 0 mm 4 mps 713 mmHg 94%
    23:00 +1°C° 0 mm 5 mps 713 mmHg 93%

    Tomorrow, 15 October, Tuesday

    Time Temperature Precipitation Wind Pressure Humidity
    00:00 +1°C° 0.1 mm 6 mps 713 mmHg 92%
    01:00 +1°C° 0.1 mm 6 mps 713 mmHg 92%
    02:00 0°C° 0.1 mm 7 mps 714 mmHg 92%
    03:00 0°C° 0 mm 7 mps 714 mmHg 92%
    04:00 -1°C° 0 mm 7 mps 715 mmHg 91%
    05:00 -2°C° 0 mm 7 mps 715 mmHg 91%
    06:00 -2°C° 0.1 mm 7 mps 716 mmHg 93%
    07:00 -1°C° 0.1 mm 7 mps 717 mmHg 95%
    08:00 -1°C° 0.1 mm 7 mps 718 mmHg 96%
    09:00 +1°C° 0.1 mm 6 mps 718 mmHg 94%
    10:00 +1°C° 0.1 mm 6 mps 719 mmHg 92%
    11:00 +2°C° 0.1 mm 6 mps 719 mmHg 90%
    12:00 +2°C° 0 mm 5 mps 719 mmHg 90%
    13:00 +2°C° 0 mm 5 mps 719 mmHg 89%
    14:00 +2°C° 0 mm 5 mps 720 mmHg 89%
    15:00 +3°C° 0 mm 4 mps 720 mmHg 89%
    16:00 +2°C° 0 mm 3 mps 720 mmHg 90%
    17:00 +3°C° 0 mm 2 mps 720 mmHg 90%
    18:00 +3°C° 0 mm 1 mps 720 mmHg 91%
    19:00 +3°C° 0 mm 1 mps 720 mmHg 92%
    20:00 +1°C° 0 mm 0 mps 720 mmHg 93%
    21:00 +2°C° 0 mm 1 mps 720 mmHg 93%
    22:00 +2°C° 0 mm 1 mps 719 mmHg 93%
    23:00 +1°C° 0 mm 1 mps 719 mmHg 93%

    Day after tomorrow, 16 October, Wednesday

    Time Temperature Precipitation Wind Pressure Humidity
    00:00 +1°C° 0 mm 1 mps 719 mmHg 93%
    01:00 +1°C° 0 mm 1 mps 719 mmHg 94%
    02:00 +1°C° 0 mm 1 mps 719 mmHg 94%
    03:00 -1°C° 0 mm 2 mps 718 mmHg 94%
    04:00 -1°C° 0 mm 2 mps 718 mmHg 94%
    05:00 -1°C° 0 mm 2 mps 717 mmHg 94%
    06:00 0°C° 0 mm 3 mps 717 mmHg 91%
    07:00 +1°C° 0 mm 3 mps 717 mmHg 88%
    08:00 0°C° 0 mm 4 mps 717 mmHg 84%
    09:00 +3°C° 0 mm 4 mps 716 mmHg 81%
    10:00 +3°C° 0 mm 5 mps 716 mmHg 77%
    11:00 +5°C° 0 mm 5 mps 715 mmHg 73%
    12:00 +6°C° 0 mm 5 mps 714 mmHg 71%
    13:00 +7°C° 0 mm 5 mps 714 mmHg 68%
    14:00 +8°C° 0 mm 6 mps 713 mmHg 66%
    15:00 +7°C° 0 mm 5 mps 712 mmHg 70%
    16:00 +6°C° 0 mm 4 mps 712 mmHg 73%
    17:00 +5°C° 0 mm 4 mps 711 mmHg 77%
    18:00 +5°C° 0 mm 4 mps 711 mmHg 78%
    19:00 +5°C° 0 mm 4 mps 711 mmHg 79%
    20:00 +4°C° 0 mm 4 mps 711 mmHg 80%
    21:00 +4°C° 0 mm 3 mps 710 mmHg 80%
    22:00 +4°C° 0 mm 3 mps 710 mmHg 81%
    23:00 +4°C° 0 mm 3 mps 710 mmHg 81%

    17 October, Thursday

    Time Temperature Precipitation Wind Pressure Humidity
    00:00 +4°C° 0 mm 3 mps 710 mmHg 81%
    01:00 +4°C° 0 mm 3 mps 709 mmHg 82%
    02:00 +5°C° 0 mm 2 mps 709 mmHg 82%
    03:00 +5°C° 0 mm 2 mps 709 mmHg 81%
    04:00 +5°C° 0 mm 2 mps 708 mmHg 80%
    05:00 +5°C° 0 mm 2 mps 708 mmHg 79%
    06:00 +6°C° 0 mm 2 mps 708 mmHg 75%
    07:00 +7°C° 0 mm 3 mps 707 mmHg 71%
    08:00 +8°C° 0 mm 3 mps 707 mmHg 68%
    09:00 +10°C° 0 mm 3 mps 706 mmHg 63%
    10:00 +12°C° 0 mm 4 mps 706 mmHg 59%
    11:00 +14°C° 0 mm 5 mps 705 mmHg 54%
    12:00 +15°C° 0 mm 5 mps 704 mmHg 52%
    13:00 +16°C° 0 mm 5 mps 704 mmHg 51%
    14:00 +17°C° 0 mm 5 mps 703 mmHg 49%
    15:00 +15°C° 0 mm 4 mps 702 mmHg 56%
    16:00 +13°C° 0 mm 4 mps 702 mmHg 62%
    17:00 +12°C° 0 mm 3 mps 701 mmHg 69%
    18:00 +12°C° 0 mm 3 mps 702 mmHg 68%
    19:00 +11°C° 0 mm 3 mps 702 mmHg 67%
    20:00 +11°C° 0 mm 4 mps 703 mmHg 67%
    21:00 +11°C° 0 mm 4 mps 703 mmHg 64%
    22:00 +10°C° 0 mm 5 mps 704 mmHg 61%
    23:00 +10°C° 0 mm 5 mps 705 mmHg 58%

    18 October, Friday

    Time Temperature Precipitation Wind Pressure Humidity
    00:00 +9°C° 0 mm 5 mps 705 mmHg 60%
    01:00 +8°C° 0 mm 4 mps 705 mmHg 61%
    02:00 +7°C° 0 mm 4 mps 706 mmHg 62%
    03:00 +6°C° 0 mm 4 mps 706 mmHg 63%
    04:00 +7°C° 0 mm 3 mps 706 mmHg 64%
    05:00 +5°C° 0 mm 3 mps 707 mmHg 65%
    06:00 +7°C° 0 mm 3 mps 707 mmHg 63%
    07:00 +8°C° 0 mm 3 mps 707 mmHg 60%
    08:00 +8°C° 0 mm 3 mps 707 mmHg 58%
    09:00 +10°C° 0 mm 3 mps 707 mmHg 52%
    10:00 +12°C° 0 mm 3 mps 707 mmHg 47%
    11:00 +13°C° 0 mm 3 mps 707 mmHg 41%
    12:00 +14°C° 0 mm 3 mps 707 mmHg 40%
    13:00 +14°C° 0 mm 3 mps 707 mmHg 38%
    14:00 +15°C° 0 mm 4 mps 707 mmHg 36%
    15:00 +14°C° 0 mm 3 mps 707 mmHg 40%
    16:00 +13°C° 0 mm 2 mps 706 mmHg 44%
    17:00 +12°C° 0 mm 2 mps 706 mmHg 48%
    18:00 +10°C° 0 mm 2 mps 706 mmHg 49%
    19:00 +10°C° 0 mm 2 mps 706 mmHg 51%
    20:00 +9°C° 0 mm 3 mps 706 mmHg 53%
    21:00 +9°C° 0 mm 3 mps 706 mmHg 53%
    22:00 +8°C° 0 mm 3 mps 706 mmHg 54%
    23:00 +8°C° 0 mm 2 mps 707 mmHg 55%

    19 October, Saturday

    Time Temperature Precipitation Wind Pressure Humidity
    00:00 +8°C° 0 mm 3 mps 707 mmHg 57%
    01:00 +7°C° 0 mm 3 mps 707 mmHg 58%
    02:00 +7°C° 0 mm 3 mps 707 mmHg 60%
    03:00 +7°C° 0 mm 2 mps 707 mmHg 60%
    04:00 +7°C° 0 mm 2 mps 707 mmHg 60%
    05:00 +8°C° 0 mm 1 mps 707 mmHg 60%
    06:00 +8°C° 0 mm 2 mps 707 mmHg 62%
    07:00 +8°C° 0 mm 2 mps 707 mmHg 63%
    08:00 +9°C° 0 mm 3 mps 707 mmHg 64%
    09:00 +10°C° 0 mm 3 mps 707 mmHg 56%
    10:00 +12°C° 0 mm 3 mps 708 mmHg 48%
    11:00 +13°C° 0 mm 4 mps 708 mmHg 41%
    12:00 +13°C° 0 mm 4 mps 708 mmHg 38%
    13:00 +14°C° 0 mm 5 mps 708 mmHg 36%
    14:00 +14°C° 0 mm 6 mps 708 mmHg 34%
    15:00 +13°C° 0 mm 5 mps 708 mmHg 37%
    16:00 +11°C° 0 mm 4 mps 708 mmHg 41%
    17:00 +10°C° 0 mm 4 mps 708 mmHg 44%
    18:00 +9°C° 0 mm 3 mps 709 mmHg 46%
    19:00 +8°C° 0 mm 3 mps 709 mmHg 48%
    20:00 +7°C° 0 mm 3 mps 710 mmHg 51%
    21:00 +7°C° 0 mm 3 mps 710 mmHg 53%
    22:00 +5°C° 0 mm 3 mps 711 mmHg 55%
    23:00 +4°C° 0 mm 3 mps 711 mmHg 57%
    Show more